Weather History for Medford, OR

Change the Weather History Date:

Friday, March 8, 2013

  Actual Average Record
Temperature  
Mean Temperature 42 °F 47 °F  
Max Temperature 57 °F 59 °F 78 °F (2004)
Min Temperature 26 °F 36 °F 23 °F (1974)
Degree Days  
Heating Degree Days 23 18  
Month to date heating degree days 150 146  
Since 1 July heating degree days 3225 3260  
Cooling Degree Days 0 0  
Month to date cooling degree days 0 0  
Year to date cooling degree days 0 0  
Moisture  
Dew Point 28 °F    
Average Humidity 56    
Maximum Humidity 92    
Minimum Humidity 20    
Precipitation  
Precipitation 0.00 in 0.06 in 0.48 in (1978)
Month to date precipitation 0.14 0.50  
Year to date precipitation 1.59 4.94  
Snow  
Snow 0.00 in 0.00 in - ()
Month to date snowfall 0.0 0.2  
Since 1 July snowfall 1.7 3.8  
Snow Depth 0.00 in    
Sea Level Pressure  
Sea Level Pressure 30.04 in    
Wind  
Wind Speed 3 mph (NW)    
Max Wind Speed 14 mph    
Max Gust Speed 17 mph    
Visibility 10 miles    
Events      
T = Trace of Precipitation, MM = Missing Value Source: NWS Daily Summary

Daily Weather History Graph

Daily Weather History Graph

Search for Another Location

Airport:

Trip Planner

Search our weather history database for the weather conditions in past years. The results will help you decide how hot, cold, wet, or windy it might be!

Date:

Astronomy

Mar. 08, 2013 Rise Set
Actual Time 6:34 AM PST 6:10 PM PST
Civil Twilight 6:06 AM PST 6:38 PM PST
Nautical Twilight 5:34 AM PST 7:10 PM PST
Astronomical Twilight 5:01 AM PST 7:43 PM PST
Moon 4:26 AM PST (3/8) 3:08 PM PST (3/8)
Length of Visible Light 12h 31m
Length of Day
11h 35m
Waning Crescent, 11% of the Moon is Illuminated
Mar 8
Waning Crescent
Mar 11
New
Mar 19
First Quarter
Mar 27
Full
Apr 2
Last Quarter

Hourly Weather History & Observations

Time (PST) Temp. Windchill Dew Point Humidity Pressure Visibility Wind Dir Wind Speed Gust Speed Precip Events Conditions
12:53 AM 33.1 °F 30.0 °F 28.9 °F 85% 30.01 in 10.0 mi ENE 3.5 mph - N/A   Clear
1:53 AM 33.1 °F - 28.9 °F 85% 30.01 in 10.0 mi Calm Calm - N/A   Clear
2:53 AM 32.0 °F - 28.0 °F 85% 30.00 in 10.0 mi Calm Calm - N/A   Clear
3:53 AM 28.9 °F - 26.1 °F 89% 30.01 in 10.0 mi Calm Calm - N/A   Clear
4:53 AM 28.0 °F - 25.0 °F 88% 30.01 in 10.0 mi Calm Calm - N/A   Clear
5:53 AM 28.9 °F - 25.0 °F 85% 30.02 in 10.0 mi Calm Calm - N/A   Clear
6:53 AM 28.0 °F - 25.0 °F 88% 30.04 in 10.0 mi Calm Calm - N/A   Clear
7:53 AM 30.0 °F - 27.0 °F 88% 30.05 in 10.0 mi Calm Calm - N/A   Clear
8:53 AM 35.1 °F - 28.9 °F 78% 30.04 in 10.0 mi Calm Calm - N/A   Clear
9:53 AM 39.0 °F 36.8 °F 30.9 °F 73% 30.04 in 10.0 mi North 3.5 mph - N/A   Clear
10:53 AM 43.0 °F - 32.0 °F 65% 30.03 in 10.0 mi Calm Calm - N/A   Clear
11:53 AM 48.0 °F - 32.0 °F 54% 30.01 in 10.0 mi NW 4.6 mph - N/A   Scattered Clouds
12:53 PM 52.0 °F - 30.9 °F 45% 29.99 in 10.0 mi Variable 4.6 mph - 0.01 in   Scattered Clouds
1:53 PM 55.0 °F - 26.1 °F 33% 29.96 in 10.0 mi WNW 5.8 mph - N/A   Scattered Clouds
2:53 PM 55.9 °F - 15.1 °F 20% 29.96 in 10.0 mi West 9.2 mph - 0.01 in   Scattered Clouds
3:53 PM 55.9 °F - 19.9 °F 25% 29.96 in 10.0 mi West 9.2 mph - N/A   Scattered Clouds
4:53 PM 55.0 °F - 28.9 °F 37% 29.98 in 10.0 mi West 11.5 mph - N/A   Scattered Clouds
5:53 PM 52.0 °F - 27.0 °F 38% 30.02 in 10.0 mi NNW 9.2 mph - N/A   Partly Cloudy
6:53 PM 48.9 °F - 27.0 °F 43% 30.06 in 10.0 mi NNW 8.1 mph - N/A   Mostly Cloudy
7:53 PM 46.0 °F 43.1 °F 30.9 °F 56% 30.10 in 10.0 mi NNW 5.8 mph - N/A   Scattered Clouds
8:53 PM 43.0 °F 41.3 °F 30.9 °F 62% 30.13 in 10.0 mi South 3.5 mph - N/A   Partly Cloudy
9:53 PM 42.1 °F 40.2 °F 28.9 °F 60% 30.15 in 10.0 mi WSW 3.5 mph - N/A   Clear
10:53 PM 42.1 °F - 30.9 °F 65% 30.16 in 10.0 mi Calm Calm - N/A   Clear
11:53 PM 37.9 °F - 28.9 °F 70% 30.19 in 10.0 mi Calm Calm - N/A   Clear